{"data":{"norad_id":57392,"intl_designator":"2023-100G","name":"LEO 3","alt_names":[],"object_type":"PAYLOAD","status":"ACTIVE","operator":null,"country":"CA","launch_date":"2023-07-18","launch_site_code":"RLLB","launch_vehicle":null,"mission":null,"orbit_class":"UNKNOWN","rcs_meters":null,"size_class":null,"mass_kg":null,"dimensions":null,"purposes":[],"wikipedia_slug":null,"has_3d_model":false,"image_url":null,"decayed_at":null,"tle_current":{"epoch":"2026-09-21T20:17:07.188576Z","epoch_age_seconds":91463,"freshness":"FRESH","line1":"1 57392U 23100G   26264.84522209 -.00000049  00000+0 -52172-5 0  9990","line2":"2 57392  99.5767  28.3194 0018955 126.0472 234.2433 13.68420745158867","mean_motion":13.68420745,"eccentricity":0.0018955,"inclination_deg":99.5767,"raan_deg":28.3194,"arg_perigee_deg":126.0472,"mean_anomaly_deg":234.2433,"bstar":-5.2172e-6,"rev_number":15886,"period_min":105.23079288746,"perigee_km":991.25098639565,"apogee_km":1019.241392066,"semimajor_km":7383.3831892308,"source":"CELESTRAK","updated_at":"2026-09-22T09:00:26.165674Z"}}}